Station APXF1 - East Bay, Apalachicola Reserve, FL Image indicating link to RSS feed of recent meteorological observations for station APXF1


Conditions at APXF1 as of
(2:00 am EDT)
0600 GMT on 05/07/2026:
     

Click on the graph icon in the table below to see a time series plot of the last five days of that observation.

5-day plot - Wind Direction Wind Direction (WDIR): S ( 190 deg true )
5-day plot - Wind Speed Wind Speed (WSPD): 2.9 kts
5-day plot - Atmospheric Pressure Atmospheric Pressure (PRES):29.97 in
5-day plot - Pressure Tendency Pressure Tendency (PTDY):-0.03 in ( Falling )
5-day plot - Air Temperature Air Temperature (ATMP): 74.1 °F
5-day plot - Dew Point Dew Point (DEWP): 72.0 °F
5-day plot -  Wind Speed, Wind Gust and Atmospheric Pressure Combined plot of Wind Speed, Gust, and Air Pressure
Previous observations
TIME
(EDT)
5-day plot - Wind Direction
WDIR
 
5-day plot - Wind Speed
WSPD
kts
5-day plot - Wind Gust
GST
kts
5-day plot - Wave Height
WVHT
ft
5-day plot - Dominant Wave Period
DPD
sec
5-day plot - Average Wave Period
APD
sec
5-day plot - Mean Wave Direction
MWD
 
5-day plot - Atmospheric Pressure
PRES
in
5-day plot - Pressure Tendency
PTDY
in
5-day plot - Air Temperature
ATMP
°F
5-day plot - Water Temperature
WTMP
°F
5-day plot - Dew Point
DEWP
°F
5-day plot - Salinity
SAL
psu
5-day plot - Visibility
VIS
nmi
5-day plot - Tide (above MLLW)
TIDE
ft
2026-05-07 01:45 amSSW 2.9-----29.97- 74.1- 72.0---
2026-05-07 01:30 amSSW 4.1-----29.97- 74.1- 72.0---
2026-05-07 01:15 amSSW 2.9-----30.00- 74.3- 72.1---
2026-05-07 01:00 amSSW 4.1-----30.00+0.00 74.3- 72.1---
2026-05-07 12:45 am S 2.9-----30.00- 74.3- 72.0---
2026-05-07 12:30 am S 2.9-----30.00- 74.5- 72.1---
2026-05-07 12:15 am S 2.9-----30.00- 74.5- 72.1---
2026-05-07 12:00 amSSW 2.9-----30.00+0.00 74.7- 72.0---
2026-05-06 11:45 pmSSW 1.9-----30.03- 74.7- 72.0---
2026-05-06 11:30 pm S 1.9-----30.00- 74.8- 72.1---
2026-05-06 11:15 pm S 2.9-----30.00- 74.8- 72.1---
2026-05-06 11:00 pm S 2.9-----30.00+0.03 74.8- 72.1---
2026-05-06 10:45 pm S 2.9-----30.00- 74.8- 71.8---
2026-05-06 10:30 pm S 2.9-----30.00- 74.8- 71.8---
2026-05-06 10:15 pm S 1.9-----30.00- 74.7- 71.2---
2026-05-06 10:00 pm S 1.9-----30.00+0.00 74.7- 71.2---
2026-05-06 09:45 pm S 1.9-----30.00- 74.7- 70.9---
2026-05-06 09:30 pm S 1.9-----30.00- 74.8- 71.1---
2026-05-06 09:15 pm S 1.9-----30.00- 75.0- 71.2---
2026-05-06 09:00 pm S 2.9-----30.00+0.00 75.0- 71.2---
2026-05-06 08:45 pm S 2.9-----29.97- 75.2- 71.2---
2026-05-06 08:30 pm S 2.9-----29.97- 75.4- 71.1---
2026-05-06 08:15 pm S 4.1-----29.97- 75.9- 71.2---
2026-05-06 08:00 pm S 2.9-----29.97-0.03 76.5- 71.4---
2026-05-06 07:45 pm S 4.1-----29.97- 76.8- 71.1---
2026-05-06 07:30 pm S 4.1-----30.00- 77.4- 71.2---
2026-05-06 07:15 pmSSW 4.1-----30.00- 77.9- 71.1---
2026-05-06 07:00 pmSSW 4.1-----30.00-0.03 78.3- 70.7---
2026-05-06 06:45 pm SW 5.1-----30.00- 78.4- 70.5---
2026-05-06 06:30 pmWSW 6.0-----30.00- 78.6- 70.2---
2026-05-06 06:15 pmWSW 6.0-----30.00- 78.8- 70.0---
2026-05-06 06:00 pmWSW 7.0-----30.00-0.06 78.8- 70.0---
2026-05-06 05:45 pmWSW 6.0-----30.00- 78.8- 69.6---
2026-05-06 05:30 pmWSW 7.0-----30.00- 78.8- 69.6---
2026-05-06 05:15 pmWSW 7.0-----30.00- 79.0- 69.4---
2026-05-06 05:00 pmWSW 8.0-----30.00-0.06 78.6- 69.8---
2026-05-06 04:45 pmWSW 7.0-----30.03- 78.6- 69.8---
2026-05-06 04:30 pmWSW 8.0-----30.03- 78.3- 70.3---
2026-05-06 04:15 pmWSW 8.0-----30.03- 78.3- 70.3---
2026-05-06 04:00 pmWSW 7.0-----30.03-0.03 78.3- 70.3---
2026-05-06 03:45 pmWSW 8.0-----30.03- 78.1- 70.2---
2026-05-06 03:30 pmWSW 8.0-----30.06- 77.9- 69.6---
2026-05-06 03:15 pmWSW 8.0-----30.06- 77.7- 69.4---
2026-05-06 03:00 pmWSW 8.0-----30.06+0.00 77.5- 69.3---
2026-05-06 02:45 pmWSW 8.0-----30.06- 77.4- 69.4---
2026-05-06 02:30 pmWSW 8.0-----30.06- 77.4- 69.1---
2026-05-06 02:15 pmWSW 8.0-----30.06- 77.2- 69.3---
2026-05-06 02:00 pmWSW 8.9-----30.06+0.00 77.0- 69.1---
2026-05-06 01:45 pmWSW 8.0-----30.06- 76.6- 69.1---
2026-05-06 01:30 pmWSW 8.0-----30.06- 76.8- 68.5---
2026-05-06 01:15 pmWSW 8.9-----30.06- 76.6- 68.4---
2026-05-06 01:00 pmWSW 8.9-----30.06+0.03 76.5- 68.5---
2026-05-06 12:45 pmWSW 8.9-----30.06- 75.9- 69.1---
2026-05-06 12:30 pmWSW 8.9-----30.06- 75.7- 69.6---
2026-05-06 12:15 pmWSW 8.0-----30.06- 75.7- 69.3---
2026-05-06 12:00 pmWSW 8.9-----30.06+0.06 75.7- 69.3---
2026-05-06 11:45 amWSW 8.9-----30.06- 76.6- 69.1---
2026-05-06 11:30 amSSW 6.0-----30.06- 77.5- 68.0---
2026-05-06 11:15 am S 5.1-----30.06- 77.5- 68.0---
2026-05-06 11:00 amSSW 4.1-----30.06+0.06 77.5- 67.6---
2026-05-06 10:45 am S 6.0-----30.03- 77.0- 67.1---
2026-05-06 10:30 am S 5.1-----30.03- 76.8- 67.3---
2026-05-06 10:15 am S 5.1-----30.03- 76.5- 68.2---
2026-05-06 10:00 am S 5.1-----30.03+0.06 76.1- 69.3---
2026-05-06 09:45 amSSE 6.0-----30.03- 75.4- 69.6---
2026-05-06 09:30 am S 5.1-----30.03- 75.4- 69.6---
2026-05-06 09:15 am S 5.1-----30.00- 74.7- 69.6---
2026-05-06 09:00 am S 5.1-----30.00+0.03 74.1- 69.8---
2026-05-06 08:45 amSSE 5.1-----30.00- 73.6- 70.2---
2026-05-06 08:30 amSSE 5.1-----30.00- 73.2- 70.2---
2026-05-06 08:15 amSSE 5.1-----30.00- 72.7- 70.3---
2026-05-06 08:00 amSSE 4.1-----30.00+0.03 72.5- 70.3---
2026-05-06 07:45 amSSE 4.1-----30.00- 72.1- 70.3---
2026-05-06 07:30 amSSE 4.1-----30.00- 71.8- 70.0---
2026-05-06 07:15 amSSE 2.9-----29.97- 71.8- 70.0---
2026-05-06 07:00 am S 2.9-----29.97+0.00 71.6- 70.2---
2026-05-06 06:45 am S 2.9-----29.97- 71.4- 70.0---
2026-05-06 06:30 am S 2.9-----29.97- 71.4- 70.0---
2026-05-06 06:15 am S 2.9-----29.97- 71.4- 70.2---
2026-05-06 06:00 am S 2.9-----29.97+0.00 71.2- 70.0---
2026-05-06 05:45 am S 1.9-----29.97- 70.9- 70.0---
2026-05-06 05:30 am S 1.9-----29.97- 70.7- 69.8---
2026-05-06 05:15 am S 1.0-----29.97- 70.3- 69.4---
2026-05-06 05:00 amSSE 1.9-----29.97-0.03 70.0- 69.1---
2026-05-06 04:45 am S 1.0-----29.97- 70.0- 69.1---
2026-05-06 04:30 amSSE 1.0-----29.97- 70.0- 69.1---
2026-05-06 04:15 am- 0.0-----29.97- 70.5- 69.6---
2026-05-06 04:00 am- 0.0-----29.97-0.03 70.3- 69.3---
2026-05-06 03:45 am S 1.0-----29.97- 70.9- 70.0---
2026-05-06 03:30 am SW 1.9-----29.97- 70.9- 70.0---
2026-05-06 03:15 amSSW 1.0-----29.97- 70.5- 69.6---
2026-05-06 03:00 amSSE 1.0-----29.97-0.06 70.7- 69.4---